{"data":{"norad_id":63073,"intl_designator":"2025-035X","name":"STARLINK-33586","alt_names":[],"object_type":"PAYLOAD","status":"ACTIVE","operator":null,"country":"US","launch_date":"2025-02-21","launch_site_code":"AFETR","launch_vehicle":null,"mission":null,"orbit_class":"UNKNOWN","rcs_meters":null,"size_class":null,"mass_kg":null,"dimensions":null,"purposes":["comms"],"wikipedia_slug":null,"has_3d_model":false,"image_url":null,"decayed_at":null,"tle_current":{"epoch":"2026-09-21T22:16:58.023840Z","epoch_age_seconds":38888,"freshness":"FRESH","line1":"1 63073U 25035X   26264.92844935  .00010948  00000+0  40666-3 0  9994","line2":"2 63073  43.0011 111.7381 0001381 272.9608  87.1086 15.27587945 89829","mean_motion":15.27587945,"eccentricity":0.0001381,"inclination_deg":43.0011,"raan_deg":111.7381,"arg_perigee_deg":272.9608,"mean_anomaly_deg":87.1086,"bstar":0.00040666,"rev_number":8982,"period_min":94.26625843136,"perigee_km":482.07777944011,"apogee_km":483.97283246902,"semimajor_km":6861.1623059546,"source":"CELESTRAK","updated_at":"2026-09-22T09:00:49.755862Z"}}}